Theta_e
312 312 312 312 313 313 314 314 314 314 314 315 315 315 315 316 316 308 304 311 317 328 329 325 322 326 325 321 322 315 298 296 301 304 307 314 312 317 320 316 318 320 319 320 322
312 313 312 312 313 313 314 314 314 314 314 314 315 315 315 316 308 304 315 327 328 334 315 309 308 318 318 317 319 314 299 300 306 309 309 311 313 315 315 316 315 317 323 324 324
312 312 312 312 313 313 313 313 313 314 314 314 314 314 315 314 303 302 331 330 326 332 313 312 311 310 311 313 313 312 305 307 308 310 312 312 312 316 314 312 316 316 319 322 321
311 312 312 312 313 313 313 313 313 313 314 314 313 313 314 308 291 307 331 332 334 324 311 308 304 301 299 306 310 306 311 311 310 312 311 310 314 313 315 314 319 318 319 320 319
312 313 312 313 313 312 313 313 314 313 313 313 313 313 307 298 297 307 330 327 314 310 307 304 300 299 296 300 309 306 307 310 314 313 313 314 312 312 313 318 320 319 318 317 317
312 312 312 312 312 313 313 313 313 313 313 313 313 313 303 291 305 307 308 310 312 309 307 305 302 303 300 300 300 306 310 309 310 311 313 311 312 313 314 317 316 316 315 315 316
313 313 312 312 312 313 313 312 312 313 313 313 314 310 300 297 305 307 306 304 305 306 306 308 310 307 303 300 305 305 301 305 308 310 308 311 306 308 313 315 314 315 316 317 317
313 312 312 312 312 313 313 312 312 313 313 314 315 307 295 306 307 305 305 304 306 306 305 306 307 302 301 304 304 300 300 296 303 307 309 308 300 309 313 314 313 315 316 316 315
312 312 311 311 312 313 312 312 313 313 314 314 308 303 294 310 304 306 305 302 303 304 304 307 304 299 300 296 294 298 292 295 299 307 306 306 302 310 314 313 312 313 315 315 316
312 312 312 312 311 312 311 311 312 312 311 311 309 299 302 301 306 307 308 306 303 301 299 298 296 294 294 292 287 292 294 297 296 303 305 303 303 308 311 311 311 313 313 313 315
311 311 311 311 312 311 308 302 298 298 303 297 298 301 304 308 311 303 306 303 302 298 290 294 289 289 292 294 296 297 298 296 300 304 303 302 302 306 309 309 309 310 310 312 313
310 311 311 311 311 311 306 300 299 298 291 299 299 299 302 303 297 300 303 295 295 289 295 292 287 293 297 297 296 295 293 293 299 304 302 301 301 306 308 308 309 310 311 310 311
310 311 311 311 310 307 302 302 306 303 290 294 298 298 299 300 296 296 300 297 292 289 290 289 293 297 296 295 294 293 292 293 293 298 300 299 297 300 305 307 309 310 310 311 312
309 310 310 310 304 304 300 306 306 303 284 290 296 300 301 298 294 302 302 297 293 288 290 289 295 296 294 292 295 290 297 296 296 294 289 298 288 297 301 303 307 309 308 309 309
309 309 310 308 302 301 304 306 304 299 275 294 295 304 300 296 298 300 306 300 292 291 290 287 289 290 291 293 297 293 299 297 296 293 292 294 290 295 300 300 302 305 307 308 310
308 309 309 307 304 305 307 306 301 286 276 288 294 292 292 294 294 298 300 303 301 293 293 292 295 292 291 294 298 298 296 296 295 292 286 292 291 292 296 299 303 306 308 309 310
308 308 306 307 300 306 305 298 283 277 290 286 287 291 291 290 292 294 292 293 289 286 287 292 293 294 295 290 293 294 289 283 282 284 283 293 292 294 299 303 305 305 307 309 311
307 306 307 309 309 306 302 291 274 285 286 291 289 290 287 290 290 291 290 288 293 292 287 284 282 293 298 291 288 289 290 284 278 281 285 294 288 293 303 306 308 308 307 313 321
305 306 304 307 308 305 294 280 282 287 290 287 288 285 285 289 289 289 288 288 289 292 285 284 285 296 296 296 293 289 286 293 288 290 285 289 294 299 302 303 306 306 309 317 320
300 301 304 308 308 301 290 285 288 293 293 290 283 287 283 286 286 287 287 291 291 295 294 289 282 291 293 295 295 293 294 286 288 281 280 288 290 292 298 302 304 306 309 317 319
300 298 305 307 307 296 283 287 290 295 294 289 286 285 286 286 286 286 287 291 294 292 293 290 285 286 291 288 288 290 288 288 289 288 284 283 288 300 302 303 303 306 316 317 318
300 293 305 307 291 291 286 291 294 292 295 293 291 290 287 287 287 286 287 290 296 294 288 292 288 284 287 293 295 293 291 290 285 285 289 288 289 304 308 306 306 314 317 318 320
295 298 306 303 286 286 292 291 292 292 292 291 289 291 291 288 284 288 289 294 295 294 290 291 285 280 284 290 293 290 294 293 291 291 288 287 290 302 306 307 309 315 317 318 319
297 291 296 298 295 290 288 289 289 295 293 292 291 292 290 287 290 287 288 293 296 295 298 295 287 284 280 285 291 289 292 294 292 287 288 291 294 298 303 305 313 316 317 318 319
299 292 295 286 289 290 292 291 288 288 293 294 290 290 288 285 286 286 290 291 294 297 295 292 286 287 288 291 292 289 290 291 290 293 290 293 295 300 305 313 315 316 317 317 318
296 293 295 292 292 290 292 290 288 290 291 289 288 291 291 286 288 286 288 288 287 293 292 294 287 289 287 291 291 288 290 291 292 294 295 295 296 304 309 317 315 316 317 317 318
300 301 296 292 290 288 289 291 291 292 293 294 292 291 290 292 294 294 294 293 292 290 288 290 287 286 282 291 289 284 289 290 293 296 297 292 298 308 309 313 312 314 316 317 318
Wind_Speed
14 15 15 15 16 15 16 17 16 17 18 19 20 20 20 21 23 10 10 12 9 12 3 7 7 10 11 8 10 6 3 6 12 12 16 18 12 10 3 4 2 2 1 5 8
16 16 16 16 16 16 17 17 18 18 17 18 21 22 22 23 16 12 17 16 18 8 5 13 11 12 11 9 8 13 8 15 13 14 17 13 10 17 16 8 4 5 3 6 15
17 17 17 17 17 16 16 16 17 17 17 17 17 20 20 19 8 7 1 17 26 15 14 10 13 15 15 12 12 15 22 15 16 18 19 17 16 15 16 14 7 4 10 17 10
17 17 17 18 18 19 18 18 16 17 17 16 16 17 20 5 7 3 0 3 8 16 11 12 6 10 8 19 17 19 21 19 18 21 22 22 19 20 18 13 12 10 12 8 9
17 18 19 20 20 20 20 20 19 18 15 15 15 14 8 6 12 15 7 5 5 8 13 10 11 7 14 8 16 25 20 19 20 21 24 23 24 22 22 19 19 14 15 14 10
16 18 19 20 21 21 20 20 19 18 18 17 15 12 6 16 12 20 17 11 10 10 11 11 8 10 11 12 20 16 17 22 19 23 22 24 24 21 20 13 14 11 12 11 10
17 18 20 21 21 21 22 23 23 20 19 18 14 9 12 22 9 15 20 15 18 13 11 11 17 12 6 13 19 18 20 19 23 21 23 18 28 32 19 15 18 16 18 18 10
18 19 20 22 22 24 26 27 27 26 22 18 13 8 10 18 16 20 21 19 17 14 13 15 12 7 4 8 15 18 13 22 20 21 23 16 42 20 15 19 18 23 23 21 12
18 17 19 21 22 23 25 28 31 30 22 14 5 7 10 11 10 17 16 14 14 15 13 15 12 7 8 6 8 14 20 23 25 22 17 13 30 21 19 19 25 26 24 22 20
19 19 20 23 24 23 24 30 30 14 9 9 9 6 10 7 5 9 13 17 11 9 12 13 7 10 10 12 20 12 22 24 29 13 17 23 29 31 30 22 24 22 17 12 13
22 21 22 23 26 24 16 9 9 4 3 13 18 16 25 17 19 12 4 5 3 5 9 9 8 23 37 20 15 12 22 22 16 19 18 23 22 27 21 11 14 17 11 14 11
25 25 25 26 25 24 7 4 11 9 15 21 22 28 25 23 26 21 18 18 9 8 8 9 25 26 15 16 19 21 23 23 14 13 15 20 18 25 22 19 21 21 18 11 9
24 25 26 29 25 11 6 13 13 12 7 20 17 17 20 20 22 23 21 18 16 14 13 16 15 16 21 20 21 25 26 18 21 12 22 15 16 21 19 11 10 10 9 10 11
24 25 24 25 5 9 8 15 11 6 5 11 21 11 14 11 20 24 25 20 16 18 15 16 18 21 21 26 20 24 17 23 21 13 19 7 20 25 16 17 16 16 13 12 10
25 24 24 16 6 6 11 11 8 5 5 14 8 6 14 10 12 13 16 7 16 15 13 23 14 11 21 22 18 25 14 19 14 17 16 17 11 23 11 12 7 10 11 11 11
25 24 22 6 4 10 11 10 4 2 4 10 5 12 13 8 7 7 6 18 7 13 13 16 16 19 20 17 20 17 17 19 15 12 11 20 16 28 16 14 10 10 10 10 11
27 28 16 6 5 6 6 4 2 1 15 9 19 18 17 21 17 15 13 17 8 7 12 13 18 16 20 17 19 15 11 7 10 11 19 13 14 21 6 14 18 14 12 11 9
28 30 8 8 8 4 4 2 3 7 17 22 18 11 10 17 13 15 15 13 15 11 6 9 10 9 10 18 11 13 14 10 15 13 16 12 11 13 18 17 22 17 11 5 14
27 5 3 4 2 2 4 3 5 10 15 18 20 11 10 16 4 10 14 9 10 5 2 3 7 12 16 18 16 20 18 17 17 11 7 7 15 22 27 22 15 7 6 14 14
7 5 5 5 5 2 3 4 9 15 23 15 16 13 10 16 9 10 5 9 10 2 6 4 10 10 17 14 14 11 11 6 12 14 15 6 10 13 10 20 17 9 10 14 14
2 4 2 4 4 2 0 4 20 17 23 1 7 15 10 11 9 13 7 10 12 13 14 8 4 14 11 4 9 10 14 11 6 10 13 5 10 15 16 14 14 10 18 18 16
5 4 4 4 1 2 3 15 18 20 18 12 11 11 2 14 11 8 13 2 3 4 11 4 3 8 12 16 16 15 20 16 10 14 10 5 11 2 4 9 12 19 19 16 18
6 5 3 2 2 2 8 13 15 19 13 13 10 13 12 9 5 10 8 9 11 6 4 3 3 5 7 7 9 9 13 14 6 6 20 10 16 6 10 6 10 18 18 17 18
5 5 4 3 5 8 10 9 15 11 14 13 14 12 8 7 7 7 4 8 11 11 10 4 4 7 7 14 10 12 20 17 12 10 7 18 19 10 18 7 17 18 19 19 17
4 4 5 6 10 15 11 9 15 17 10 12 6 10 14 12 16 13 11 7 10 8 4 4 6 8 15 20 10 13 20 20 18 15 12 11 11 13 9 15 19 19 18 18 18
4 4 5 11 12 16 4 3 11 15 15 10 13 14 12 14 18 14 15 13 8 4 6 5 4 8 15 18 9 15 21 20 19 22 15 20 15 9 10 14 14 18 19 19 19
4 4 5 5 10 10 11 12 9 17 4 15 18 11 12 17 16 16 14 14 14 14 7 7 6 4 6 5 7 5 17 22 15 17 18 20 10 6 9 8 9 15 16 18 18
Wind_Direction
360 355 352 349 348 342 341 336 332 333 330 326 328 329 329 325 315 293 235 225 204 231 252 266 210 230 234 214 230 223 228 254 252 252 264 300 313 337 288 333 339 105 20 308 288
355 352 350 348 343 340 335 330 329 326 323 323 329 327 328 331 302 247 239 219 234 237 217 231 250 219 227 212 210 222 223 227 243 259 274 289 314 296 308 307 329 300 323 324 302
351 348 347 343 339 335 330 325 321 317 318 321 322 320 321 325 281 246 83 223 231 230 227 230 240 251 230 228 220 229 239 242 254 259 273 283 293 296 296 295 268 261 173 250 252
348 346 342 337 332 328 324 320 316 314 315 312 311 314 317 307 256 76 185 149 193 212 224 234 255 261 257 229 229 241 236 237 248 256 269 274 283 284 285 275 297 295 299 247 274
338 339 336 332 328 324 319 314 311 307 303 302 304 309 326 234 244 287 292 245 175 171 212 218 230 237 251 263 235 235 243 243 246 248 254 264 265 265 268 281 282 277 284 283 261
341 338 333 329 326 322 316 310 304 301 302 301 295 295 278 259 261 266 281 291 241 189 208 215 219 230 280 256 250 266 249 245 243 247 253 256 262 264 258 265 280 278 278 277 265
339 337 335 331 326 321 316 310 305 300 298 295 288 269 258 250 251 294 302 292 294 300 261 221 219 221 167 250 261 266 272 278 254 244 249 263 270 258 273 271 281 285 289 277 262
337 333 329 325 320 317 313 308 302 298 298 290 283 250 252 249 240 252 262 268 269 276 273 286 298 285 239 279 264 264 275 258 257 258 254 253 262 271 269 273 278 283 273 272 251
332 325 321 315 313 309 309 303 295 289 293 279 242 203 260 270 212 243 235 245 264 270 255 255 266 261 291 255 262 230 238 250 254 240 247 237 269 269 264 258 256 256 259 262 253
333 329 324 317 317 312 311 302 285 281 269 234 226 264 257 240 253 231 192 218 226 234 257 222 229 233 236 223 218 215 222 234 246 242 236 238 250 263 263 258 254 258 252 243 238
334 331 322 321 319 318 327 327 6 27 217 290 278 225 286 283 316 297 242 258 251 209 225 250 217 218 221 220 240 261 236 245 246 236 256 253 261 269 265 255 265 271 264 260 226
332 330 330 326 322 318 302 261 0 280 294 273 269 267 261 270 280 286 295 284 264 236 224 233 229 232 242 236 235 246 265 260 271 249 251 256 254 255 253 256 249 250 252 247 237
330 330 333 326 323 309 282 340 340 347 305 298 272 255 259 234 252 256 249 247 248 251 244 233 247 227 238 231 237 229 240 254 258 288 284 299 292 278 281 272 257 247 243 232 212
329 327 330 334 338 322 342 341 348 354 308 319 350 356 334 214 253 264 249 227 224 238 244 260 254 240 251 229 233 242 233 239 254 251 257 246 271 264 269 266 260 265 257 248 240
326 326 328 324 288 297 332 341 347 19 308 337 282 236 321 6 330 332 290 227 222 226 216 242 275 257 250 249 227 251 236 251 241 240 257 251 263 267 209 237 270 266 249 244 236
324 323 331 308 196 249 340 322 330 40 309 302 305 325 335 334 329 311 8 320 241 229 254 262 243 252 264 275 240 262 242 251 260 257 259 236 232 266 241 247 243 256 260 250 249
324 316 315 293 259 19 314 354 3 76 302 350 351 359 355 359 334 329 284 233 285 227 233 254 266 248 251 266 269 257 224 245 238 231 239 214 235 238 260 222 239 244 252 260 250
324 310 250 235 267 18 320 17 12 328 334 330 339 14 354 5 333 328 321 316 189 236 301 267 277 271 257 234 263 252 229 215 214 217 253 263 242 239 241 243 242 251 238 123 106
324 301 245 223 182 4 33 353 345 350 283 331 327 335 339 355 336 352 335 322 304 87 318 16 256 281 303 302 230 252 250 229 253 280 245 243 236 265 258 256 251 217 165 128 123
316 277 256 125 101 309 65 256 301 326 342 15 322 330 349 326 332 354 319 282 333 114 175 297 290 273 286 313 300 256 251 241 219 232 255 243 242 254 275 248 227 191 136 129 124
221 257 131 143 136 38 127 269 316 351 316 167 265 329 339 337 331 322 270 330 9 337 348 345 262 271 290 244 272 292 242 243 278 207 234 253 268 252 244 212 191 156 142 135 131
317 298 193 149 48 174 271 316 315 324 353 335 323 333 1 284 312 314 341 239 302 296 306 35 292 290 285 276 269 272 282 238 222 228 239 213 265 248 107 145 134 144 141 135 133
310 268 246 99 288 277 291 329 322 336 325 311 338 317 2 335 342 315 327 234 246 272 274 35 308 301 286 230 225 247 268 246 235 241 222 236 245 306 296 158 135 140 135 132 133
291 317 344 327 355 336 329 312 324 310 320 341 321 317 308 300 285 261 262 304 227 269 286 137 257 250 276 303 314 291 317 325 263 235 227 226 260 284 269 208 130 136 136 140 141
243 330 15 320 326 307 323 286 316 327 339 323 302 323 318 314 302 301 314 275 264 149 101 128 257 252 274 282 278 266 284 299 304 260 229 233 264 223 267 140 138 139 135 140 138
337 342 341 295 305 304 48 294 303 317 329 311 317 332 331 293 292 320 308 303 284 203 159 202 256 267 284 275 192 252 267 281 278 281 266 247 245 290 259 129 130 140 140 142 145
8 346 299 283 307 323 326 347 298 308 300 311 310 342 301 296 307 298 285 272 269 266 249 199 235 323 287 180 163 297 255 263 261 274 277 243 195 229 94 68 138 138 141 146 149